星链-3106 (STARLINK-3106 )

导读 | 豆包AI

STARLINK-3106是美国SpaceX公司星链(Starlink)低轨卫星互联网星座的一员,于2021年9月14日由猎鹰9号运载火箭发射升空。作为星链第一代V1.5批次卫星,它重约295公斤,运行于340-614公里近地轨道,配备相控阵天线与氪离子霍尔推进器,支持激光星间链路,为全球提供高速低延迟宽带互联网接入服务,是星链全球组网的重要组成部分。

Basic Information
目录编号:
49164
目录名称:
STARLINK-3106
国际标识:
2021-082AL
轨道中心:
EARTH
卫星名称:
星链-3106
卫星全名:
星链-3106 (STARLINK-3106 )
卫星状态:
在轨 (已飞行1689 天)
发射日期:
2021-09-14 UTC
国别 :
美国 (US)
星等 :
--
Orbit Information
数据来源 国际轨道数据 AOE轨道数据
星历时间 2026-04-30T18:39:53+0800
11小时前
查看轨道信息
2026-04-30T07:00:00+0800
23小时前
查看轨道信息
半长轴 6950.179km 6950.145km
偏心率 0.0003278 0.0002761
轨道倾角 69.999° 70.000°
近地点辐角 265.684° 273.217°
升交点赤经 143.962° 145.182°
平近点角 94.395° 346.006°
近地点 569.763km 570.089km
远地点 574.321km 573.927km
周期 96.107分钟 96.106分钟
每日圈数 14.983345 14.983455
Detailed Information
固有亮度:
5
最大亮度:
2.5
卫星平台:
Starlink v1.5
覆盖范围:
全球
运营商:
太空探索技术公司
运营商所在国:
美国
制造商(研发单位):
太空探索技术公司
制造商所在国:
美国
使用方式:
暂无
Satellite Introduction
星链(Starlink)计划是由太空探索技术公司(SpaceX)提出的一个巨型低轨卫星互联网星座项目,计划在2019年至2024年间在太空搭建由约1.2万颗卫星组成的“星链”网络,其中1584颗将部署在地球上空550千米处的近地轨道,并从2020年开始工作。该卫星仍在工作。
2D Orbit Map
3D Orbit Map
Orbit Altitude Analysis Chart
Orbit Inclination Analysis Chart
Orbit Comprehensive Analysis Chart
View Comprehensive Chart